Location: Unspecified
(0.0000°N, 0.0000°E)
Time: 15:32:10
(UTC+00:00)

Tiros 1 - All Passes

Search period start: 27 September 2016 00:00
Search period end: 07 October 2016 00:00
Orbit: 631 x 665 km, 48.4° (Epoch: 26 September)

Date Brightness Start Highest point End Pass type
(mag) Time Alt. Az. Time Alt. Az. Time Alt. Az.
27 Sep - 02:26:22 10° NNE 02:28:38 13° NE 02:30:55 10° E night (unlit)
27 Sep - 04:06:18 10° NW 04:10:41 45° SW 04:15:07 10° SSE visible
27 Sep - 14:37:51 10° S 14:41:49 25° SE 14:45:47 10° ENE daylight
27 Sep - 16:19:54 10° WSW 16:23:52 26° NW 16:27:51 10° N daylight
28 Sep - 02:50:32 10° NNW 02:54:55 44° NE 02:59:19 10° ESE visible
28 Sep - 04:34:38 10° W 04:36:59 14° SW 04:39:20 10° SSW visible
28 Sep - 15:03:15 10° SW 15:08:04 85° SE 15:12:52 10° NE daylight
29 Sep - 01:37:18 10° NNE 01:39:04 12° NE 01:40:51 10° ENE night (unlit)
29 Sep - 03:16:40 10° NW 03:21:08 51° SW 03:25:38 10° SSE visible
29 Sep - 13:48:27 10° S 13:52:14 23° SE 13:56:01 10° ENE daylight
29 Sep - 15:30:09 10° WSW 15:34:18 29° NW 15:38:26 10° N daylight
30 Sep - 02:01:04 10° NNW 02:05:22 39° NE 02:09:41 10° ESE night (unlit)
30 Sep - 03:44:42 10° W 03:47:25 15° SW 03:50:08 10° SSW visible
30 Sep - 14:13:41 10° SW 14:18:30 76° SE 14:23:17 10° NE daylight
01 Oct - 00:48:29 10° NE 00:49:30 11° NE 00:50:31 10° ENE night (unlit)
01 Oct - 02:27:03 10° NW 02:31:35 57° SW 02:36:08 10° SSE night (unlit)
01 Oct - 12:59:06 10° S 13:02:39 21° SE 13:06:13 10° E daylight
01 Oct - 14:40:27 10° WSW 14:44:43 32° NW 14:49:00 10° NNE daylight
02 Oct - 01:11:36 10° NNW 01:15:49 35° NE 01:20:01 10° ESE night (unlit)
02 Oct - 02:54:48 10° W 02:57:51 17° SW 03:00:53 10° S night (unlit)
02 Oct - 13:24:09 10° SSW 13:28:54 67° SE 13:33:41 10° NE daylight
03 Oct - 01:37:27 10° NW 01:42:01 65° SW 01:46:37 10° SSE night (unlit)
03 Oct - 12:09:46 10° S 12:13:04 18° SE 12:16:23 10° E daylight
03 Oct - 13:50:45 10° WSW 13:55:09 36° NW 13:59:32 10° NNE daylight
04 Oct - 00:22:09 10° NNW 00:26:15 31° NE 00:30:21 10° ESE night (unlit)
04 Oct - 02:04:58 10° W 02:08:17 19° SW 02:11:35 10° S night (unlit)
04 Oct - 12:34:37 10° SSW 12:39:19 59° SE 12:44:04 10° NE daylight
04 Oct - 14:20:00 10° WNW 14:21:28 11° NW 14:22:55 10° NNW daylight
05 Oct - 00:47:51 10° NW 00:52:29 74° SW 00:57:05 10° SSE night (unlit)
05 Oct - 11:20:29 10° S 11:23:29 16° SE 11:26:30 10° E daylight
05 Oct - 13:01:05 10° WSW 13:05:34 40° NW 13:10:03 10° NNE daylight
05 Oct - 23:32:42 10° N 23:36:41 28° NE 23:40:39 10° ESE night (unlit)
06 Oct - 01:15:10 10° W 01:18:43 21° SW 01:22:15 10° S night (unlit)
06 Oct - 11:45:06 10° SSW 11:49:45 52° SE 11:54:25 10° NE daylight
06 Oct - 13:29:47 10° WNW 13:31:52 13° NW 13:33:56 10° NNW daylight
